[[{"header":{"parameterUnit":"m.s-1","parameterCategory":1,"la1":30.2991,"la2":30.254,"lo1":-89.0895,"lo2":-89.0444,"dy":0.0017,"dx":0.0017,"nx":28,"ny":28,"refTime":"2024-03-02T03:00:00:Z","depth":0,"parameterNumber":2,"parameterNumberName":"U-component_of_WINDS"},"data":[0,0,0,0,0,0,0,0,0,0,0,0,0,0,0,0,0,0,0,0,0,0,0,0,0,0,0,0,0,0,0,0,0,0,0,0,0,0,0,0,0,0,0,0,0,0,0,0,0,0,0,0,0,0,0,0,0,0,-3.9775,-3.9775,0,-3.9845,-3.9846,-3.9847,-3.9778,-3.9775,-3.9772,-3.9769,-3.9844,-3.9848,-3.9852,0,0,0,0,0,0,0,0,0,0,0,0,0,-3.9583,-3.9586,-3.9775,-3.9775,-3.9776,-3.9845,-3.9846,-3.9847,-3.9778,-3.9775,-3.9771,-3.9768,-3.9842,-3.9847,-3.9853,0,0,0,0,0,0,0,0,0,0,0,0,0,-3.9661,-3.9588,-3.9774,-3.975,-3.9749,-3.9845,-3.9846,-3.9848,-3.9779,-3.9775,-3.977,-3.9767,-3.984,-3.9847,-3.9854,-3.9978,0,0,-3.9874,-3.9877,0,0,0,0,0,0,0,0,-3.9657,-3.9668,-3.9753,-3.9752,-3.975,-3.9798,-3.9806,-3.9891,-3.978,-3.9767,-3.9769,-3.9765,-3.9832,-3.9839,-3.9862,-3.9982,-3.9985,-3.9875,-3.9879,-3.9882,-3.9884,0,0,0,0,0,0,0,-3.9651,-3.9665,-3.9803,-3.9754,-3.9753,-3.9737,-3.9743,-3.9822,-3.9822,-3.9768,-3.9763,-3.9773,-3.9831,-3.9855,-3.9863,-3.9986,-3.9875,-3.9881,-3.9885,-3.9888,-4.0215,-4.0219,0,0,0,0,0,0,-3.9648,-3.9661,-3.98,-3.9805,-3.9692,-3.9744,-3.9751,-3.9787,-3.9821,-3.9822,-3.9776,-3.9769,-3.9846,-3.9855,-3.9865,-4.0015,-3.9882,-3.9888,-3.9892,-4.021,-4.0216,-4.0221,0,0,0,0,0,0,-3.9644,-3.9661,-3.9797,-3.9731,-3.9748,-3.9751,-3.9793,-3.9791,-3.9815,-3.9827,-3.9827,-3.9801,-3.9843,-3.9856,-3.9951,-4.0016,-3.9891,-3.9898,-4.0205,-4.0212,-4.0218,-4.0314,0,0,0,0,0,0,-3.9639,-3.966,-3.9707,-3.9733,-3.9751,-3.9881,-3.9797,-3.9795,-3.9827,-3.9819,-3.985,-3.9851,-3.984,-3.9941,-3.9958,-4.0023,-3.9903,-4.0199,-4.0208,-4.0216,-4.0305,-4.0323,-4.0339,0,0,0,0,0,-3.9632,-3.973,-3.9709,-3.9726,-3.9809,-3.9885,-3.9896,-3.9881,-3.9832,-3.988,-3.9888,-3.985,-4.0007,-3.9952,-3.997,-4.0038,-4.0195,-4.0205,-4.0215,-4.0297,-4.0319,-4.0338,0,0,0,0,0,0,-3.9711,-3.9733,-3.971,-3.9819,-3.9851,-3.9873,-3.9932,-3.9904,-3.9951,-3.9941,-3.9921,-3.9929,-4.003,-4.0044,-3.9982,-4.0162,-4.0093,-4.0108,-4.0149,-4.017,-4.0187,-4.0181,-3.9909,0,0,0,0,0,-3.9741,-3.98,-3.9817,-3.9912,-3.9929,-3.9928,-3.9961,-3.9947,-3.9979,-3.9992,-4.0007,-4.004,-4.0097,-4.0134,-4.0187,-4.0307,-4.0314,-4.0363,-4.038,-4.0394,-4.0407,-4.0473,-4.0496,-4.0255,-4.0255,-4.0255,0,0,-3.9804,-3.9823,-3.9862,-3.9928,-3.9951,-4.0014,-3.994,-4.0009,-4.0056,-4.0002,-4.0093,-4.0106,-4.0142,-4.0251,-4.03,-4.0266,-4.0475,-4.0407,-4.0418,-4.0423,-4.0486,-4.0509,-4.0529,-4.0262,-4.0261,-4.0259,0,0,-3.995,-3.997,-4.0052,-4.0077,-4.0113,-4.0113,-4.0133,-4.016,-4.0167,-4.0258,-4.022,-4.0276,-4.0374,-4.0402,-4.0429,-4.059,-4.0558,-4.0608,-4.0696,-4.0761,-4.078,-4.0797,-4.0855,-4.0876,-4.062,-4.0621,-4.0621,0,-4.0023,-4.0115,-4.0098,-4.0171,-4.0202,-4.0157,-4.0241,-4.0267,-4.0319,-4.0342,-4.0303,-4.0426,-4.0447,-4.0563,-4.0603,-4.0626,-4.0649,-4.0603,-4.0779,-4.0795,-4.0811,-4.0866,-4.0888,-4.0626,-4.0626,-4.0625,-4.0625,0,-4.0204,-4.0269,-4.0331,-4.0383,-4.0421,-4.0499,-4.0495,-4.0537,-4.0521,-4.0525,-4.062,-4.0644,-4.0702,-4.0729,-4.0713,-4.0844,-4.0821,-4.0781,-4.0711,-4.084,-4.0892,-4.0913,-4.0635,-4.0633,-4.0631,-4.063,0,0,-4.0398,-4.0442,-4.0465,-4.0489,-4.0527,-4.0578,-4.0655,-4.0712,-4.0748,-4.0787,-4.0852,-4.0937,-4.0901,-4.0932,-4.092,-4.0977,-4.1105,-4.093,-4.0931,-4.0962,-4.1252,-4.1282,-4.1306,-4.1085,-4.1089,-4.1092,-4.1249,0,-4.0546,-4.0679,-4.0668,-4.0795,-4.0856,-4.0817,-4.0884,-4.0916,-4.0923,-4.0977,-4.0985,-4.1046,-4.0993,-4.1012,-4.1067,-4.1078,-4.1163,-4.1066,-4.1146,-4.1149,-4.1137,-4.1333,-4.1364,-4.1511,-4.1269,-4.1272,-4.1275,0,-4.0735,-4.0781,-4.0914,-4.0945,-4.0971,-4.1031,-4.1084,-4.1136,-4.1172,-4.1173,-4.121,-4.1189,-4.1269,-4.1198,-4.1309,-4.1244,-4.1276,-4.1287,-4.1292,-4.1298,-4.1219,-4.1345,-4.1558,-4.158,-4.1307,-4.1304,-4.1302,0,-4.0864,-4.0959,-4.1052,-4.1074,-4.1112,-4.1157,-4.1175,-4.1207,-4.1243,-4.129,-4.1313,-4.1369,-4.1399,-4.1443,-4.1439,-4.1388,-4.1552,-4.1481,-4.1556,-4.1557,-4.1591,-4.1589,-4.1812,-4.1613,-4.1613,-4.1613,-4.1612,0,-4.103,-4.1113,-4.1111,-4.1167,-4.126,-4.1248,-4.1341,-4.1354,-4.1384,-4.1444,-4.1414,-4.1471,-4.1461,-4.1519,-4.1517,-4.161,-4.1624,-4.1628,-4.1626,-4.163,-4.163,-4.165,-4.164,-4.1618,-4.1617,-4.1616,-4.1615,0,-4.1189,-4.1191,-4.1289,-4.1319,-4.1329,-4.1396,-4.1422,-4.1477,-4.1482,-4.1559,-4.1576,-4.1586,-4.1653,-4.1653,-4.1729,-4.1727,-4.1841,-4.1828,-4.1829,-4.1826,-4.1902,-4.1895,-4.2146,-4.2178,-4.1958,-4.1961,-4.1962,0,-4.1294,-4.1357,-4.1395,-4.1433,-4.1454,-4.1516,-4.1553,-4.1544,-4.1584,-4.1632,-4.1682,-4.1746,-4.1796,-4.1906,-4.192,-4.1979,-4.1967,-4.2051,-4.1975,-4.1978,-4.1969,-4.1965,-4.1972,-4.2065,-4.2068,-4.207,-4.2071,0,-4.1481,-4.1479,-4.1533,-4.1589,-4.1634,-4.1678,-4.1718,-4.1751,-4.1747,-4.1794,-4.1862,-4.1902,-4.1981,-4.2046,-4.2103,-4.2123,-4.2098,-4.2095,-4.2116,-4.2121,-4.2119,-4.2121,-4.1869,-4.2089,-4.2087,-4.2086,-4.2085,-4.2084,-4.1616,-4.1671,-4.1707,-4.1769,-4.1799,-4.1838,-4.1891,-4.1905,-4.1961,-4.2025,-4.2017,-4.2094,-4.2131,-4.2206,-4.2232,-4.2293,-4.2263,-4.2293,-4.23,-4.2308,-4.2316,-4.211,-4.2303,-4.2303,-4.2302,-4.2302,-4.2301,0,-4.1801,-4.1823,-4.188,-4.1938,-4.1988,-4.196,-4.2004,-4.2048,-4.2115,-4.2153,-4.2204,-4.2284,-4.2348,-4.2368,-4.243,-4.2475,-4.2465,-4.2492,-4.2488,-4.2494,-4.2339,-4.2315,-4.2499,-4.2499,-4.2499,-4.2499,-4.2499,-4.2499,-4.1903,-4.1995,-4.1999,-4.2107,-4.2129,-4.2203,-4.2231,-4.2268,-4.2298,-4.2388,-4.2441,-4.2455,-4.2486,-4.2551,-4.2609,-4.2613,-4.2638,-4.2669,-4.2669,-4.2524,-4.2504,-4.2485,-4.2462,-4.2675,-4.2675,-4.2819,-4.282,-4.2821]},{"header":{"parameterUnit":"m.s-1","parameterCategory":1,"la1":30.2991,"la2":30.254,"lo1":-89.0895,"lo2":-89.0444,"dy":0.0017,"dx":0.0017,"nx":28,"ny":28,"refTime":"2024-03-02T03:00:00:Z","depth":0,"parameterNumber":3,"parameterNumberName":"V-component_of_WINDS"},"data":[0,0,0,0,0,0,0,0,0,0,0,0,0,0,0,0,0,0,0,0,0,0,0,0,0,0,0,0,0,0,0,0,0,0,0,0,0,0,0,0,0,0,0,0,0,0,0,0,0,0,0,0,0,0,0,0,0,0,0.7226,0.7226,0,0.7214,0.7214,0.7214,0.7212,0.7212,0.7212,0.7212,0.7197,0.7197,0.7196,0,0,0,0,0,0,0,0,0,0,0,0,0,0.7247,0.7247,0.7226,0.7226,0.7226,0.7214,0.7214,0.7214,0.7212,0.7212,0.7212,0.7212,0.7198,0.7197,0.7196,0,0,0,0,0,0,0,0,0,0,0,0,0,0.7237,0.7247,0.7226,0.7224,0.7223,0.7214,0.7214,0.7214,0.7212,0.7212,0.7212,0.7212,0.7198,0.7197,0.7196,0.7188,0,0,0.7194,0.7194,0,0,0,0,0,0,0,0,0.7237,0.7236,0.7224,0.7224,0.7223,0.7215,0.7216,0.7205,0.7212,0.7216,0.7212,0.7212,0.7203,0.7202,0.7199,0.7188,0.7187,0.7194,0.7194,0.7193,0.7193,0,0,0,0,0,0,0,0.7238,0.7236,0.7221,0.7224,0.7223,0.7223,0.7222,0.7214,0.7209,0.7216,0.7216,0.7214,0.7203,0.72,0.7199,0.7187,0.7194,0.7193,0.7193,0.7193,0.717,0.717,0,0,0,0,0,0,0.7239,0.7237,0.7222,0.7221,0.7231,0.7222,0.7221,0.7217,0.7209,0.7208,0.7214,0.7214,0.7201,0.72,0.7198,0.7189,0.7193,0.7193,0.7192,0.717,0.717,0.717,0,0,0,0,0,0,0.724,0.7238,0.7222,0.7229,0.7227,0.7222,0.7218,0.7217,0.7214,0.7208,0.7206,0.7212,0.7201,0.7199,0.7191,0.7188,0.7192,0.7191,0.717,0.717,0.717,0.717,0,0,0,0,0,0,0.724,0.7238,0.7235,0.7229,0.7227,0.7216,0.7218,0.7217,0.7213,0.7213,0.7205,0.7204,0.7201,0.7192,0.7191,0.7188,0.7191,0.717,0.717,0.717,0.717,0.717,0.717,0,0,0,0,0,0.7241,0.7235,0.7235,0.7233,0.7223,0.7215,0.7214,0.7211,0.7213,0.721,0.7206,0.7204,0.7189,0.7192,0.7189,0.7186,0.717,0.717,0.717,0.7171,0.717,0.717,0,0,0,0,0,0,0.7239,0.7234,0.7234,0.7225,0.7221,0.7215,0.7211,0.7211,0.7205,0.7205,0.7201,0.72,0.7192,0.7188,0.7191,0.7179,0.718,0.7179,0.7181,0.7181,0.7181,0.7181,0.719,0,0,0,0,0,0.7238,0.7233,0.7229,0.7221,0.722,0.7216,0.7212,0.7211,0.7206,0.7204,0.7199,0.7194,0.7188,0.7184,0.7179,0.717,0.7169,0.7167,0.7167,0.7167,0.7166,0.7162,0.7162,0.7168,0.7168,0.7168,0,0,0.7235,0.7232,0.7228,0.7221,0.7218,0.7213,0.7214,0.7208,0.7205,0.7203,0.7195,0.7192,0.7186,0.7178,0.7175,0.7175,0.7164,0.7166,0.7166,0.7165,0.7162,0.7161,0.7161,0.7168,0.7168,0.7168,0,0,0.7227,0.7224,0.7218,0.7215,0.7211,0.7209,0.7207,0.7202,0.72,0.7193,0.7192,0.7188,0.7177,0.7174,0.717,0.7164,0.7163,0.7162,0.716,0.7157,0.7156,0.7156,0.7154,0.7153,0.7161,0.7161,0.7161,0,0.7224,0.7217,0.7215,0.721,0.7207,0.7207,0.7202,0.7199,0.7192,0.719,0.7191,0.718,0.7175,0.7167,0.7166,0.7163,0.7162,0.7163,0.7157,0.7156,0.7156,0.7154,0.7153,0.7161,0.7161,0.7161,0.7161,0,0.7213,0.7208,0.7204,0.72,0.7196,0.7191,0.7189,0.7186,0.7185,0.7183,0.7177,0.7172,0.7166,0.7165,0.7163,0.7157,0.7157,0.7158,0.7158,0.7155,0.7153,0.7153,0.7161,0.7161,0.7161,0.7161,0,0,0.7202,0.7198,0.7197,0.7195,0.7191,0.7187,0.7183,0.7178,0.7176,0.7172,0.7168,0.7161,0.7161,0.7158,0.7156,0.7153,0.715,0.7154,0.7154,0.7154,0.7144,0.7144,0.7143,0.7149,0.7149,0.7149,0.7144,0,0.7194,0.7186,0.7186,0.7178,0.7175,0.7175,0.7172,0.7169,0.7167,0.7164,0.7162,0.7157,0.7158,0.7156,0.7153,0.7151,0.7148,0.7151,0.7146,0.7145,0.7147,0.7142,0.7141,0.7137,0.7144,0.7143,0.7143,0,0.7183,0.718,0.7173,0.7171,0.717,0.7166,0.7163,0.7159,0.7156,0.7156,0.7153,0.7152,0.7148,0.715,0.7144,0.7146,0.7144,0.7143,0.7143,0.7142,0.7144,0.7141,0.7135,0.7135,0.7142,0.7142,0.7142,0,0.7176,0.7171,0.7166,0.7165,0.7162,0.716,0.7159,0.7156,0.7154,0.7151,0.715,0.7146,0.7144,0.7141,0.714,0.7141,0.7134,0.7136,0.7134,0.7134,0.7131,0.7131,0.7126,0.713,0.713,0.713,0.713,0,0.7167,0.7163,0.7163,0.716,0.7156,0.7156,0.7152,0.7151,0.7149,0.7146,0.7146,0.7143,0.7142,0.7139,0.7138,0.7134,0.7132,0.7132,0.7131,0.7132,0.7132,0.713,0.713,0.713,0.713,0.713,0.713,0,0.7158,0.7158,0.7154,0.7153,0.7153,0.7149,0.7148,0.7146,0.7145,0.7142,0.7141,0.714,0.7136,0.7135,0.7131,0.713,0.7125,0.7125,0.7127,0.7127,0.7125,0.7125,0.7117,0.7116,0.7121,0.7121,0.7121,0,0.7152,0.7149,0.7149,0.7147,0.7147,0.7144,0.7143,0.7143,0.7141,0.7139,0.7137,0.7134,0.7132,0.7127,0.7125,0.7122,0.7122,0.712,0.7122,0.7123,0.7123,0.7123,0.7123,0.7119,0.7119,0.7119,0.7119,0,0.7142,0.7143,0.7141,0.714,0.7138,0.7137,0.7135,0.7134,0.7135,0.7133,0.713,0.7129,0.7126,0.7123,0.712,0.7119,0.7119,0.7119,0.7118,0.7118,0.7119,0.7119,0.7126,0.7119,0.7119,0.7119,0.7119,0.7119,0.7135,0.7133,0.7133,0.7131,0.713,0.713,0.7128,0.7128,0.7126,0.7124,0.7125,0.7122,0.7121,0.7118,0.7117,0.7115,0.7115,0.7114,0.7114,0.7113,0.7114,0.712,0.7114,0.7114,0.7114,0.7114,0.7114,0,0.7125,0.7125,0.7124,0.7123,0.7122,0.7124,0.7123,0.7122,0.712,0.7119,0.7118,0.7116,0.7114,0.7113,0.7111,0.711,0.711,0.7109,0.7109,0.7109,0.7113,0.7114,0.7109,0.7109,0.7109,0.7109,0.7109,0.7109,0.712,0.7117,0.7118,0.7115,0.7116,0.7114,0.7114,0.7113,0.7113,0.7111,0.711,0.711,0.7109,0.7108,0.7106,0.7106,0.7106,0.7105,0.7105,0.7108,0.7109,0.7109,0.711,0.7105,0.7105,0.7101,0.7101,0.7101]}]]